TimeCST,TemperatureF,Dew PointF,Humidity,Sea Level PressureIn,VisibilityMPH,Wind Direction,Wind SpeedMPH,Gust SpeedMPH,PrecipitationIn,Events,Conditions,WindDirDegrees,DateUTC
12:53 AM,1.0,-11.0,57,30.71,10.0,North,13.8,-,N/A,,Clear,350,2014-01-23 06:53:00
1:53 AM,-0.0,-11.0,60,30.72,10.0,NNW,13.8,-,N/A,,Clear,340,2014-01-23 07:53:00
2:53 AM,-0.0,-11.0,60,30.74,10.0,North,13.8,-,N/A,,Clear,360,2014-01-23 08:53:00
3:53 AM,-0.9,-11.9,60,30.77,10.0,North,13.8,-,N/A,,Clear,350,2014-01-23 09:53:00
4:53 AM,-2.0,-11.9,63,30.82,10.0,NNW,10.4,-,N/A,,Clear,340,2014-01-23 10:53:00
5:53 AM,-4.0,-11.9,69,30.84,10.0,NW,10.4,-,N/A,,Clear,320,2014-01-23 11:53:00
6:53 AM,-6.0,-13.0,72,30.89,10.0,WNW,6.9,-,N/A,,Clear,300,2014-01-23 12:53:00
7:53 AM,-7.1,-15.0,68,30.92,10.0,NW,6.9,-,N/A,,Clear,310,2014-01-23 13:53:00
8:53 AM,-2.0,-11.9,63,30.93,10.0,NW,9.2,-,N/A,,Clear,320,2014-01-23 14:53:00
9:53 AM,1.9,-11.0,55,30.95,10.0,NNW,9.2,-,N/A,,Clear,330,2014-01-23 15:53:00
10:53 AM,6.1,-9.9,48,30.95,10.0,NNW,9.2,-,N/A,,Clear,330,2014-01-23 16:53:00
11:53 AM,10.9,-9.0,40,30.91,10.0,WNW,8.1,-,N/A,,Clear,300,2014-01-23 17:53:00
12:53 PM,12.9,-9.0,37,30.87,10.0,WNW,5.8,-,N/A,,Clear,300,2014-01-23 18:53:00
1:53 PM,16.0,-9.9,31,30.84,10.0,WNW,10.4,-,N/A,,Clear,300,2014-01-23 19:53:00
2:53 PM,19.0,-11.0,26,30.80,10.0,West,8.1,-,N/A,,Clear,260,2014-01-23 20:53:00
3:53 PM,19.9,-11.9,24,30.79,10.0,WSW,9.2,-,N/A,,Clear,240,2014-01-23 21:53:00
4:53 PM,19.9,-11.9,24,30.77,10.0,SW,11.5,-,N/A,,Clear,230,2014-01-23 22:53:00
5:53 PM,16.0,-11.9,28,30.75,10.0,SW,10.4,-,N/A,,Clear,220,2014-01-23 23:53:00
6:53 PM,15.1,-11.0,31,30.74,10.0,SW,11.5,-,N/A,,Clear,220,2014-01-24 00:53:00
7:53 PM,15.1,-11.0,31,30.70,10.0,SSW,13.8,-,N/A,,Clear,210,2014-01-24 01:53:00
8:53 PM,14.0,-11.9,31,30.65,10.0,SSW,17.3,-,N/A,,Clear,210,2014-01-24 02:53:00
9:53 PM,14.0,-11.9,31,30.60,10.0,SSW,17.3,-,N/A,,Clear,210,2014-01-24 03:53:00
10:53 PM,15.1,-5.1,41,30.55,10.0,SW,19.6,-,N/A,,Clear,220,2014-01-24 04:53:00
11:53 PM,14.0,-0.9,52,30.50,10.0,SW,18.4,-,N/A,,Clear,230,2014-01-24 05:53:00